Hourly Data Report for October 15, 2014

All times are specified in Local Standard Time (LST). Add 1 hour to adjust for Daylight Saving Time where and when it is observed.

POND INLET A
NUNAVUT

72°41'22.000" N
77°58'08.000" W
61.60 m
2403206
71095
YIO

Download Data

Hourly Data (October 2014)
Hourly Data Report for October 15, 2014
Temp Definition
°C
Dew Point Temp Definition
°C
Rel Hum Definition
%
Wind Dir Definition
10's deg

Wind Spd Definition
km/h
Visibility Definition
km
Stn Press Definition
kPa
Hmdx Definition


Wind Chill Definition


Weather Definition


TIME
00:00 Legend Double Dagger -1.1 -6.2 69 10 13 16.1 100.56   -5 LegendNANA
01:00 Legend Double Dagger -1.7 -5.1 78 14 15 16.1 100.57   -7 Snow
02:00 Legend Double Dagger -1.1 -5.7 71 10 21 16.1 100.52   -7 LegendNANA
03:00 Legend Double Dagger -0.9 -5.4 72 11 15 16.1 100.54   -6 LegendNANA
04:00 Legend Double Dagger -0.6 -5.6 69 10 17 16.1 100.53   -6 LegendNANA
05:00 Legend Double Dagger -0.4 -5.8 67 9 9 16.1 100.51   -4 LegendNANA
06:00 Legend Double Dagger -1.2 -5.6 72 12 9 16.1 100.50   -4 LegendNANA
07:00 Legend Double Dagger -1.2 -4.1 81 33 9 16.1 100.49   -4 LegendNANA
08:00 Legend Double Dagger -2.5 -5.0 83 20 11 16.1 100.47   -7 LegendNANA
09:00 Legend Double Dagger -1.8 -5.3 77 17 8 16.1 100.48   -5 LegendNANA
10:00 Legend Double Dagger -1.5 -5.8 73   0 16.1 100.47     LegendNANA
11:00 Legend Double Dagger -0.1 -5.5 67 28 8 16.1 100.45   -3 LegendNANA
12:00 Legend Double Dagger -1.8 -5.8 74 13 11 16.1 100.46   -6 LegendNANA
13:00 Legend Double Dagger -1.6 -6.0 72 10 9 16.1 100.47   -5 LegendNANA
14:00 Legend Double Dagger -0.5 -6.1 66 9 18 16.1 100.47   -6 LegendNANA
15:00 Legend Double Dagger -0.4 -5.6 68 6 26 16.1 100.46   -7 LegendNANA
16:00 Legend Double Dagger -2.4 -7.3 69 10 11 16.1 100.50   -6 LegendNANA
17:00 Legend Double Dagger -2.0 -7.1 68 8 9 16.1 100.51   -5 LegendNANA
18:00 Legend Double Dagger -1.9 -6.9 69 8 13 16.1 100.52   -6 LegendNANA
19:00 Legend Double Dagger -1.2 -5.9 71 8 24 16.1 100.51   -7 LegendNANA
20:00 Legend Double Dagger -1.4 -5.9 71 7 22 16.1 100.51   -7 LegendNANA
21:00 Legend Double Dagger -1.1 -5.9 70 9 17 16.1 100.53   -6 LegendNANA
22:00 Legend Double Dagger -0.8 -6.0 68 8 28 16.1 100.49   -7 LegendNANA
23:00 Legend Double Dagger -0.8 -5.3 72 8 18 16.1 100.52   -6 Snow

Notes on Data Quality.

Legend

  • E = Estimated
  • M = Missing
  • NA = Not Available
  • ‡ = Partner data that is not subject to review by the National Climate Archives
Date modified: